TimeEST,TemperatureF,Dew PointF,Humidity,Sea Level PressureIn,VisibilityMPH,Wind Direction,Wind SpeedMPH,Gust SpeedMPH,PrecipitationIn,Events,Conditions,WindDirDegrees,DateUTC
12:53 AM,61.0,59.0,93,29.99,6.0,SSW,3.5,-,N/A,,Clear,200,2013-01-17 05:53:00
1:53 AM,60.8,59.0,94,29.99,8.0,West,3.5,-,N/A,,Clear,270,2013-01-17 06:53:00
2:21 AM,60.8,59.0,94,29.99,1.8,Calm,Calm,-,N/A,,Clear,0,2013-01-17 07:21:00
2:28 AM,60.8,57.2,88,29.98,0.8,Calm,Calm,-,N/A,,Clear,0,2013-01-17 07:28:00
2:35 AM,59.0,57.2,94,29.98,0.2,Calm,Calm,-,N/A,Fog,Fog,0,2013-01-17 07:35:00
2:53 AM,57.9,57.9,100,29.98,0.5,Calm,Calm,-,N/A,Fog,Fog,0,2013-01-17 07:53:00
3:23 AM,57.2,57.2,100,29.97,1.0,Calm,Calm,-,N/A,,Mist,0,2013-01-17 08:23:00
3:31 AM,57.2,55.4,94,29.97,0.8,SSW,3.5,-,N/A,,Mist,210,2013-01-17 08:31:00
3:35 AM,59.0,57.2,94,29.97,1.0,SSW,3.5,-,N/A,,Clear,200,2013-01-17 08:35:00
3:40 AM,59.0,57.2,94,29.97,2.0,South,3.5,-,N/A,,Clear,190,2013-01-17 08:40:00
3:53 AM,60.8,60.8,100,29.96,8.0,SSW,5.8,-,N/A,,Clear,200,2013-01-17 08:53:00
4:53 AM,62.1,61.0,96,29.96,10.0,SSW,6.9,-,N/A,,Clear,200,2013-01-17 09:53:00
5:53 AM,64.0,61.0,90,29.96,10.0,SW,9.2,-,N/A,,Clear,220,2013-01-17 10:53:00
6:53 AM,63.0,60.1,90,29.97,10.0,SSW,6.9,-,N/A,,Clear,210,2013-01-17 11:53:00
7:53 AM,63.0,60.1,90,29.98,10.0,SSW,6.9,-,N/A,,Clear,210,2013-01-17 12:53:00
8:53 AM,64.9,61.0,87,29.99,10.0,SW,8.1,-,N/A,,Clear,220,2013-01-17 13:53:00
9:53 AM,69.1,61.0,75,29.99,10.0,SW,10.4,-,N/A,,Clear,220,2013-01-17 14:53:00
10:53 AM,73.0,61.0,66,29.96,10.0,WSW,10.4,-,N/A,,Clear,240,2013-01-17 15:53:00
11:53 AM,75.9,60.1,58,29.92,10.0,WSW,10.4,-,N/A,,Clear,240,2013-01-17 16:53:00
12:53 PM,78.1,57.9,50,29.88,10.0,SW,11.5,-,N/A,,Partly Cloudy,220,2013-01-17 17:53:00
1:53 PM,78.1,57.9,50,29.85,10.0,South,11.5,21.9,N/A,,Partly Cloudy,190,2013-01-17 18:53:00
2:53 PM,75.9,60.1,58,29.83,10.0,South,16.1,21.9,N/A,,Mostly Cloudy,180,2013-01-17 19:53:00
3:53 PM,72.0,63.0,73,29.82,10.0,SE,9.2,-,N/A,,Overcast,140,2013-01-17 20:53:00
4:41 PM,62.6,57.2,82,29.81,10.0,East,16.1,24.2,N/A,,Mostly Cloudy,80,2013-01-17 21:41:00
4:48 PM,60.8,55.4,82,29.81,10.0,East,19.6,27.6,N/A,,Mostly Cloudy,90,2013-01-17 21:48:00
4:53 PM,59.0,55.0,87,29.81,9.0,East,13.8,27.6,0.00,Rain,Light Rain,80,2013-01-17 21:53:00
5:06 PM,57.2,55.4,94,29.82,2.5,East,9.2,20.7,0.06,Rain,Rain,90,2013-01-17 22:06:00
5:13 PM,57.2,55.4,94,29.82,6.0,East,13.8,17.3,0.07,Rain,Light Rain,80,2013-01-17 22:13:00
5:49 PM,55.4,55.4,100,29.82,2.0,North,5.8,-,0.20,Rain,Rain,360,2013-01-17 22:49:00
5:53 PM,55.9,54.0,93,29.82,2.0,ENE,13.8,17.3,0.21,Rain,Rain,60,2013-01-17 22:53:00
6:00 PM,55.4,53.6,94,29.83,4.0,East,15.0,20.7,0.02,Rain,Light Rain,90,2013-01-17 23:00:00
6:07 PM,55.4,53.6,94,29.83,9.0,East,16.1,23.0,0.03,Rain,Light Rain,80,2013-01-17 23:07:00
6:53 PM,55.9,53.1,90,29.81,10.0,ENE,11.5,-,0.03,,Overcast,70,2013-01-17 23:53:00
7:32 PM,53.6,51.8,94,29.76,10.0,ENE,15.0,-,0.00,Rain,Light Rain,60,2013-01-18 00:32:00
7:48 PM,53.6,51.8,94,29.80,2.5,Variable,5.8,23.0,0.06,Rain,Heavy Rain,0,2013-01-18 00:48:00
7:53 PM,53.1,52.0,96,29.80,1.2,North,11.5,23.0,0.21,Rain,Heavy Rain,350,2013-01-18 00:53:00
8:01 PM,53.6,51.8,94,29.83,1.5,Variable,3.5,23.0,0.14,Rain,Heavy Rain,0,2013-01-18 01:01:00
8:24 PM,53.6,51.8,94,29.86,2.0,North,8.1,-,0.39,Rain,Heavy Rain,350,2013-01-18 01:24:00
8:45 PM,51.8,50.0,94,29.85,2.0,NE,11.5,-,0.59,Rain,Heavy Rain,40,2013-01-18 01:45:00
8:50 PM,51.8,48.2,88,29.85,1.8,NNE,12.7,-,0.65,Rain,Heavy Rain,20,2013-01-18 01:50:00
8:53 PM,51.1,48.9,92,29.85,1.8,NNE,12.7,-,0.68,Rain,Heavy Rain,30,2013-01-18 01:53:00
9:03 PM,50.0,48.2,94,29.87,2.5,NNE,10.4,-,0.09,Rain,Heavy Rain,20,2013-01-18 02:03:00
9:08 PM,50.0,48.2,94,29.87,3.0,North,13.8,19.6,0.10,Rain,Rain,360,2013-01-18 02:08:00
9:29 PM,48.2,44.6,87,29.88,7.0,North,11.5,-,0.14,Rain,Light Rain,360,2013-01-18 02:29:00
9:53 PM,46.9,44.1,90,29.91,10.0,NW,10.4,-,0.14,,Overcast,310,2013-01-18 02:53:00
10:18 PM,46.4,42.8,87,29.90,10.0,North,13.8,-,N/A,,Overcast,10,2013-01-18 03:18:00
10:53 PM,45.0,42.1,90,29.94,7.0,North,15.0,24.2,0.00,Rain,Light Rain,360,2013-01-18 03:53:00
11:53 PM,44.1,39.9,85,29.99,10.0,NNW,12.7,21.9,0.00,,Overcast,340,2013-01-18 04:53:00